Location: Chanas
(45.6552°N, 5.2707°E)
Time: 19:26:58
(UTC+00:00)

Daily predictions for brighter satellites

Satellite Brightness Start Highest point End
(mag) Time Altitude Azimuth Time Altitude Azimuth Time Altitude Azimuth
ADEOS Rocket 4.0 17:37:05 10° N 17:42:21 48° WNW 17:47:51 10° SW
IRS-1C Rocket 4.1 17:38:34 10° SSE 17:43:48 84° ENE 17:49:06 10° NNW
NOSS 5 (C) 4.4 17:40:53 10° NW 17:44:04 73° NE 17:48:03 10° SE
NOAA 11 4.5 17:39:55 10° S 17:45:25 78° WSW 17:50:56 10° NNW
RESURS DK-1 4.1 17:43:42 10° SE 17:45:51 14° ESE 17:48:02 10° ENE
ATLAS 2AS CENTAUR R/B 3.2 17:38:24 10° SSW 17:46:07 59° ESE 17:53:51 10° NE
CZ-2D R/B 3.3 17:45:05 10° SSE 17:48:54 60° ENE 17:52:44 10° N
Cosmos 1269 Rocket 4.3 17:46:04 10° NNW 17:51:14 49° ENE 17:56:22 10° SE
Cosmos 1939 Rocket 2.9 17:47:16 10° SSE 17:51:24 86° E 17:55:34 10° NNW
Cosmos 2082 Rocket 3.5 17:48:33 10° N 17:52:53 22° NE 17:57:11 10° E
Cosmos 1092 Rocket 4.4 17:52:18 10° N 17:58:09 42° ENE 18:04:01 10° SE
Cosmos 1464 Rocket 4.0 17:52:38 10° S 17:58:48 89° E 18:05:05 10° N
BREEZE-M DEB (TANK) 2.7 17:56:47 10° WNW 17:59:28 70° SSW 18:06:31 10° ESE
PSLV R/B 4.1 17:56:35 10° NNE 18:00:49 86° WNW 18:05:02 10° SSW
COSMOS 2455 4.0 17:57:38 10° SSE 18:01:56 21° ESE 18:06:16 10° ENE
COSMO-SKYMED 1 2.7 17:58:12 10° N 18:02:33 80° WNW 18:06:54 10° SSW
Cosmos 1844 Rocket 3.5 17:57:23 10° SW 18:02:51 56° WNW 18:08:23 10° NNE
Okean-O 2.6 17:58:37 10° SSE 18:03:03 82° ENE 18:07:31 10° NNW
Cosmos 2151 Rocket 3.7 18:00:16 10° S 18:04:46 88° WNW 18:09:19 10° N
CZ-2C R/B 3.4 17:59:28 10° SSE 18:04:51 56° ENE 18:10:29 10° N
Cosmos 1689 Rocket 3.5 18:03:35 10° N 18:06:26 43° WNW 18:09:14 10° SW
H-2A R/B 2.4 18:02:00 10° SE 18:06:45 42° ENE 18:11:40 10° N
Cosmos 2285 Rocket 4.1 18:07:29 10° SSW 18:13:49 88° WNW 18:20:14 10° NNE
KORONAS-FOTON 3.8 18:10:19 10° N 18:14:16 77° E 18:18:09 10° SSE
Cosmos 1025 Rocket 4.1 18:12:45 10° NNW 18:17:01 50° W 18:21:15 10° SSW
ISS -2.6 18:15:49 10° NW 18:18:55 33° NNE 18:21:09 16° ENE
Cosmos 1805 3.2 18:16:17 10° S 18:20:10 68° E 18:24:05 10° NNE
TSX-5 4.4 18:16:52 10° SW 18:20:54 75° WNW 18:26:12 10° NNE
Cosmos 2278 Rocket 2.4 18:17:28 10° S 18:22:50 46° ESE 18:28:13 10° NE
Gbstr 26 Del rocket 4.4 18:16:45 10° SSW 18:22:59 50° SE 18:30:21 10° ENE
CSL-04 Rocket 3.7 18:24:58 10° SSE 18:30:27 78° ENE 18:36:01 10° NNW
HJ-1C 3.3 18:27:18 10° SSE 18:30:33 63° ENE 18:33:50 10° N
Okean 1 Rocket 3.0 18:26:49 10° S 18:31:18 82° E 18:35:48 10° N
Cosmos 1833 Rocket 2.7 18:25:42 10° NNW 18:31:19 61° ENE 18:36:36 11° SE
Nadezhda 4 Rocket 4.3 18:26:07 10° NNW 18:32:14 71° W 18:38:21 10° S
Cosmos 2251 Rocket 4.3 18:27:51 10° N 18:32:44 34° ENE 18:35:38 20° ESE
CSL-04 Debris 4.1 18:30:52 10° SSE 18:36:15 90° NW 18:41:41 10° NNW
Cosmos 1340 Rocket 2.9 18:32:27 10° S 18:36:20 53° E 18:40:16 10° NNE
Okean 1-7 Rocket 4.5 18:32:23 10° N 18:36:25 30° ENE 18:38:11 23° ESE
COSMOS 2406 3.2 18:31:59 10° NNW 18:37:43 88° ENE 18:43:24 10° SSE
YAOGAN 1 3.3 18:36:50 10° S 18:41:03 54° W 18:45:18 10° NNW
Lacrosse 4 Rocket 1.5 18:39:12 10° NNW 18:43:14 55° NE 18:45:15 27° ESE
Cosmos 1674 4.0 18:40:50 10° NNW 18:44:29 43° W 18:48:06 10° SSW
Lacrosse 5 rocket 2.2 18:40:51 10° NW 18:45:02 41° NNE 18:46:58 27° E
CZ-4C R/B 2.3 18:43:27 10° S 18:48:02 43° ESE 18:53:26 10° NE
Cosmos 1758 4.5 18:50:55 25° ENE 18:50:55 25° ENE 18:53:22 10° NNE
Exosat Rocket 4.4 18:45:31 10° SW 18:50:30 50° WNW 18:55:30 10° NNE
CZ-4 R/B 3.3 18:50:29 10° SSW 18:54:13 31° W 18:57:55 10° NNW
Shenzhou-11 Module 3.6 18:53:32 10° WSW 18:54:23 17° SW 18:54:23 17° SW
ARGOS 3.1 18:52:49 10° SSE 18:58:11 88° ENE 19:03:38 10° NNW
OE (NEXTSAT) 4.2 18:55:03 10° W 18:58:31 88° N 18:59:13 54° E
Cosmos 1892 Rocket 3.4 18:54:38 10° N 18:58:59 67° E 19:01:33 24° SSE
Meteor 1-24 Rocket 3.8 18:56:00 10° NNW 19:01:43 82° W 19:07:36 10° S
APEX 2.9 18:59:05 10° SSW 19:02:16 59° ESE 19:03:27 38° NE
MOS 1 Rocket 3.2 18:58:17 10° N 19:02:35 77° WNW 19:06:52 10° SSW
CZ-2C R/B 2.9 18:57:13 10° NNE 19:02:41 50° E 19:08:07 10° S
USA 186 1.7 19:04:00 63° ENE 19:04:00 63° ENE 19:07:11 10° N
Cosmos 1626 2.6 19:01:07 10° NNW 19:04:46 59° W 19:08:24 10° S
MOS 1 4.4 19:03:08 26° SE 19:06:13 57° ENE 19:11:49 10° N
Meteor 1-22 Rocket 4.5 19:00:37 10° SSW 19:06:37 82° W 19:12:47 10° N
Aureole 2 Rocket 4.1 19:05:12 10° SW 19:08:12 32° WNW 19:11:11 10° N
Cosmos 1470 2.6 19:08:01 48° SSE 19:08:50 61° E 19:12:40 10° NNE
Ariane Rocket 2.9 19:06:14 28° SE 19:08:52 66° ENE 19:13:55 10° N
Resurs 01 Rocket 3.3 19:10:01 20° NE 19:10:01 20° NE 19:12:17 10° NNE
SL-14 R/B 3.8 19:06:55 10° NNW 19:10:51 61° W 19:14:30 12° S
SL-8 R/B 3.6 19:11:24 10° SW 19:16:10 66° SSE 19:17:03 53° ESE
Cosmos 2098 Rocket 3.7 19:12:54 10° N 19:18:44 50° ENE 19:19:21 47° E
MetOp-A 4.1 19:16:54 37° SE 19:18:58 67° ENE 19:24:17 10° N
Resurs 1-3 4.3 19:23:00 38° NE 19:23:00 38° NE 19:26:21 10° N
Milstar 3 Cent rocket 4.2 19:17:56 10° WSW 19:23:11 18° SSW 19:25:28 15° S
RESURS DK-1 2.9 19:19:17 10° SW 19:23:22 60° WNW 19:27:30 10° NNE
Cosmos 407 Rocket 4.4 19:19:14 10° N 19:23:25 30° NE 19:23:25 30° NE
SL-08 RB Rocket 3.9 19:22:59 24° S 19:25:39 68° WSW 19:30:10 10° NNW
Cosmos 1634 Rocket 4.4 19:19:45 10° SSW 19:25:51 63° W 19:32:03 10° N
ATLAS 3B R/B 3.2 19:20:08 10° NW 19:26:53 58° WSW 19:31:52 20° SSE
Cosmos 1461 3.3 19:32:11 10° NNW 19:36:42 61° NE 19:36:42 61° NE
Meteor 2-10 3.9 19:35:06 42° S 19:36:57 73° E 19:42:13 10° NNE
ATLAS 2AS CENTAUR R/B 4.0 19:29:54 10° WSW 19:37:28 45° NW 19:44:55 10° NNE
Cosmos 2082 Rocket 2.3 19:31:56 10° NNW 19:37:33 74° WSW 19:39:28 42° S
Cosmos 1626 Rocket 4.2 19:40:51 10° N 19:44:08 47° N 19:44:08 47° N
H-2A R/B 4.0 19:42:04 10° SSW 19:46:20 27° W 19:50:43 10° NW
COSMOS 2455 3.0 19:41:13 10° SW 19:47:15 73° WNW 19:53:19 10° NNE
Cosmos 1455 Rocket 3.8 19:43:12 10° SSW 19:47:28 52° WNW 19:51:44 10° N
SJ-6B 3.7 19:50:50 45° WNW 19:50:50 45° WNW 19:54:08 10° NNW
OBJECT-B 3.5 19:55:53 16° NNW 19:55:53 16° NNW 19:56:38 10° NNW
Cosmos 2279 Rocket 4.4 19:48:23 10° SSW 19:54:33 61° WNW 20:00:47 10° N
ISS -1.4 19:52:37 10° WNW 19:54:07 24° WNW 19:54:07 24° WNW
Meteor 1-21 Rocket 4.2 19:51:57 10° N 19:57:50 89° ENE 19:58:18 77° SSE
DMSP B5D2-2 4.4 19:54:33 10° N 19:59:49 65° WNW 20:05:01 10° SSW
Cosmos 1655 Rocket 4.1 19:56:06 10° NNW 20:02:24 75° W 20:04:14 49° SSW
Cosmos 2278 Rocket 3.9 20:02:04 10° WSW 20:07:05 32° NW 20:12:07 10° N
Cosmos 909 Rocket 4.4 20:03:40 10° NW 20:09:53 58° WSW 20:10:58 51° SSW
Gbstr 26 Del rocket 4.5 20:03:17 10° WSW 20:10:18 72° NNW 20:13:01 44° NE
Lacrosse 4 Rocket 3.9 20:19:02 10° WNW 20:21:29 15° WSW 20:21:36 15° WSW
Lacrosse 5 rocket 3.3 20:20:02 10° WNW 20:22:36 30° W 20:22:36 30° W
CZ-4C R/B 3.4 20:31:47 10° WSW 20:36:36 38° NW 20:42:20 10° NNE
Terra 4.5 20:45:21 12° N 20:45:21 12° N 20:45:40 10° N
Resurs 01 Rocket 3.9 20:47:36 22° NW 20:47:36 22° NW 20:49:22 10° NNW
